パンスターズ彗星

C/2014 OE4 ( PanSTARRS )

English version
Home page
Updated on May 22, 2017

---------------------------------------------------------------------

・ プロフィール

発見日 2014年7月26日
発見光度 20.7等
発見者 Pan-STARRS 1 telescope (Haleakala)

・ 写真集

・ 軌道要素

Epoch 2016 Nov. 28.0 TT = JDT 2457720.5
T 2016 Dec. 10.74515 TT                                 MPCW
q   6.2443336            (2000.0)            P               Q
z  +0.0000867      Peri.   65.74289     -0.08368650     +0.50406343
 +/-0.0000002      Node   240.40004     -0.74841966     +0.53774885
e   0.9994588      Incl.   81.34887     +0.65792445     +0.67583004
From 788 observations 2014 May 8-2017 Mar. 7, mean residual 0".4.

・ 光度変化

        m1 = -7.7 + 5 logΔ + 25.0 log r(t - 40)

---------------------------------------------------------------------

軌道要素はM.P.E.C. 2017-E59に掲載されたものです。
光度グラフはComet for Windowsで作成したものです。

---------------------------------------------------------------------

Copyright(C) Seiichi Yoshida (comet@aerith.net). All rights reserved.